Date,TemperatureHighF,TemperatureAvgF,TemperatureLowF,DewpointHighF,DewpointAvgF,DewpointLowF,HumidityHigh,HumidityAvg,HumidityLow,PressureMaxIn,PressureMinIn,WindSpeedMaxMPH,WindSpeedAvgMPH,GustSpeedMaxMPH,PrecipitationSumIn
2013-1-1,51.6,49.5,44.4,50.4,45.3,35.3,98,86,60,30.00,29.77,7,1,7,0.28
2013-1-2,66.0,53.7,50.5,52.4,50.1,47.5,99,89,59,29.91,29.70,7,2,7,0.09
2013-1-3,51.3,47.8,44.4,47.5,44.0,40.2,97,87,73,30.07,29.89,8,2,8,0.02
2013-1-4,59.4,40.9,27.5,40.2,32.2,25.3,98,76,36,30.17,30.05,14,2,14,0.00
2013-1-5,56.7,37.8,23.0,36.3,26.5,21.3,96,70,28,30.21,30.08,8,1,8,0.00
2013-1-6,54.0,47.0,43.0,43.4,38.8,34.2,89,73,65,30.13,29.88,14,3,14,0.00
2013-1-7,60.3,40.6,28.2,38.4,31.9,27.7,99,76,33,30.21,29.94,11,2,11,0.00
2013-1-8,54.3,40.6,27.9,42.2,35.6,27.3,99,84,62,30.23,30.14,8,1,8,0.00
2013-1-9,75.0,53.6,37.8,54.9,45.7,37.0,99,78,44,30.25,30.15,6,1,6,0.00
2013-1-10,77.4,58.2,45.0,56.0,50.7,44.7,99,80,45,30.26,30.16,10,2,10,0.00
2013-1-11,78.6,63.4,59.0,63.9,59.9,55.7,99,89,57,30.18,29.94,10,2,10,0.01
2013-1-12,80.8,66.2,57.4,63.9,59.4,56.1,98,81,50,29.99,29.90,15,2,15,0.01
2013-1-13,79.7,65.6,56.7,62.7,58.9,55.3,97,81,54,29.96,29.86,14,2,14,0.00
2013-1-14,83.7,69.1,62.6,63.7,60.5,58.3,88,75,50,29.95,29.85,16,4,16,0.00
2013-1-15,80.1,67.6,58.8,61.5,59.4,57.1,95,76,50,29.95,29.82,13,2,13,0.00
2013-1-16,68.5,58.2,53.4,64.3,56.1,52.0,99,93,79,29.84,29.75,9,2,9,0.00
2013-1-17,70.7,55.9,41.5,65.2,52.6,35.0,96,89,69,29.85,29.49,30,4,30,0.00
2013-1-18,59.9,41.7,29.3,39.5,31.4,23.7,96,73,26,30.30,29.85,17,3,17,0.00
2013-1-19,63.9,39.2,23.7,37.7,29.8,22.9,99,76,27,30.30,30.05,14,2,14,0.00
2013-1-20,69.1,47.4,34.0,39.4,35.7,32.1,99,70,30,30.06,29.85,14,4,14,0.00
2013-1-21,64.8,46.1,28.9,40.2,33.3,22.6,99,69,21,29.90,29.78,21,4,21,0.00
2013-1-22,53.2,42.0,29.5,28.7,18.2,8.7,65,40,18,30.04,29.85,20,6,20,0.00
2013-1-23,56.1,37.6,22.1,30.6,21.9,17.2,88,56,30,30.16,29.97,17,3,17,0.00
2013-1-24,66.2,48.7,34.2,42.4,30.3,7.3,85,56,15,30.21,29.85,20,7,20,0.00
2013-1-25,37.2,30.7,24.8,22.1,12.7,6.3,66,47,33,30.29,29.95,16,3,16,0.00
2013-1-26,64.6,41.7,31.1,38.0,28.9,21.8,85,63,27,30.06,29.89,8,2,8,0.00
2013-1-27,55.9,38.5,28.2,31.7,29.1,27.3,99,73,35,30.33,30.06,10,2,10,0.00
2013-1-28,61.2,43.7,34.7,47.3,36.1,28.2,99,75,55,30.29,30.10,8,2,8,0.00
2013-1-29,82.2,52.3,35.6,61.0,46.5,35.3,99,84,45,30.11,29.87,15,1,15,0.00
2013-1-30,79.3,68.7,57.2,64.8,61.6,55.3,99,79,52,29.88,29.31,24,6,24,0.00
2013-1-31,56.7,46.6,37.0,55.2,31.1,17.9,97,58,26,29.90,29.45,30,12,30,0.00